(158379) = 2001 XW204

Discovered at Socorro on 2001-12-11 by LINEAR.

Orbit

Orbit type: Main Belt

Note: WebGL enabled browser required.

epoch2024-03-31.0
epoch JD2460400.5
perihelion date2023-06-14.75523
perihelion JD2460110.25524
argument of perihelion (°)44.01030
ascending node (°)85.70305
inclination (°)29.41825
eccentricity0.2087227
perihelion distance (AU)2.0644398
Tisserand w.r.t. Jupiter3.2
ΔV w.r.t. Earth (km/sec)12.8
semimajor axis (AU)2.6089965
mean anomaly (°)67.88256
mean daily motion (°/day)0.23388040
aphelion distance (AU)3.154
period (years)4.21
P-vector [x]-0.54961113
P-vector [y]0.56386718
P-vector [z]0.61642632
Q-vector [x]-0.67677401
Q-vector [y]-0.73311814
Q-vector [z]0.06719169
absolute magnitude15.88
phase slope0.15
uncertainty0
referenceE2024-GI3
observations used472
oppositions13
arc length (days)8158
first opposition used2001
last opposition used2024
residual rms (arc-secs)0.67
perturbers coarse indicatorM-v
perturbers precise indicator003Ek
first observation date used2001-12-11.0
last observation date used2024-04-12.0
computer nameMPCLINUX
JD of orbit computation2456966.885470
perihelion JD uncertainty (days)1.6235E-04
argument of perihelion uncertainty (°)5.7666E-05
ascending node uncertainty (°)1.9667E-05
inclination uncertainty (°)1.3116E-05
eccentricity uncertainty 8.3670E-08
perihelion distance uncertainty (AU)2.0702E-07
Minimum Orbit Intersection Distances (in AU)
for orbit epoch: 2460400.5, reference: E2024-GI3
Mercury1.74497
Venus1.38105
Earth1.13908
Mars0.55133
Jupiter2.20849
Saturn6.81092
Uranus16.3522
Neptune27.2479

Observations

484 total observations over interval: 2001 12 11.29192 – 2023 02 03.140872
These data are available for download (format description).

Date (UT) J2000 RA J2000 Dec Magn Location Ref
2001 12 11.29192 04 48 44.75 +11 43 37.5 18.3   704 – Lincoln Laboratory ETS, New Mexico MPS 45378
2001 12 11.30769 04 48 43.39 +11 43 50.6 18.4   704 – Lincoln Laboratory ETS, New Mexico MPS 45378
2001 12 11.32278 04 48 42.12 +11 44 03.4 19.0   704 – Lincoln Laboratory ETS, New Mexico MPS 45378
2001 12 11.33784 04 48 40.80 +11 44 16.3 18.6   704 – Lincoln Laboratory ETS, New Mexico MPS 45378
2001 12 11.35301 04 48 39.52 +11 44 29.3 18.6   704 – Lincoln Laboratory ETS, New Mexico MPS 45378
2001 12 17.17440 04 40 41.34 +13 08 44.3 19.4   644 – Palomar Mountain/NEAT MPS 46999
2001 12 17.23811 04 40 36.06 +13 09 41.0 18.5   644 – Palomar Mountain/NEAT MPS 46999
2001 12 17.30267 04 40 30.69 +13 10 38.4 18.3   644 – Palomar Mountain/NEAT MPS 46999
2001 12 18.30368 04 39 10.29 +13 25 29.5 18.8   704 – Lincoln Laboratory ETS, New Mexico MPS 45378
2001 12 18.32036 04 39 08.93 +13 25 44.6 19.0   704 – Lincoln Laboratory ETS, New Mexico MPS 45378
2001 12 18.33583 04 39 07.66 +13 25 58.3 19.2   704 – Lincoln Laboratory ETS, New Mexico MPS 45378
2001 12 18.35185 04 39 06.34 +13 26 12.4 18.6   704 – Lincoln Laboratory ETS, New Mexico MPS 45378
2002 01 09.19761 04 15 51.84 +18 56 30.9 20.2   704 – Lincoln Laboratory ETS, New Mexico MPS 46999
2002 01 09.21351 04 15 51.09 +18 56 44.4 19.7   704 – Lincoln Laboratory ETS, New Mexico MPS 46999
2002 01 09.22916 04 15 50.46 +18 56 59.2 19.9   704 – Lincoln Laboratory ETS, New Mexico MPS 46999
2002 01 09.24470 04 15 49.65 +18 57 12.7 20.3   704 – Lincoln Laboratory ETS, New Mexico MPS 46999
2002 01 11.15376 04 14 32.92 +19 25 28.3 18.5 R 699 – Lowell Observatory-LONEOS MPS 46999
2002 01 11.18139 04 14 31.78 +19 25 53.0   699 – Lowell Observatory-LONEOS MPS 46999
2002 01 11.20884 04 14 30.75 +19 26 17.3   699 – Lowell Observatory-LONEOS MPS 46999
2002 01 11.23633 04 14 29.59 +19 26 40.5   699 – Lowell Observatory-LONEOS MPS 46999
2002 01 13.07898 04 13 24.24 +19 53 42.6 19.0   704 – Lincoln Laboratory ETS, New Mexico MPS 46999
2002 01 13.09405 04 13 23.66 +19 53 55.8 19.3   704 – Lincoln Laboratory ETS, New Mexico MPS 46999
2002 01 13.10915 04 13 23.14 +19 54 09.4 19.4   704 – Lincoln Laboratory ETS, New Mexico MPS 46999
2002 01 13.12424 04 13 22.60 +19 54 22.4 19.5   704 – Lincoln Laboratory ETS, New Mexico MPS 46999
2002 01 13.14178 04 13 21.96 +19 54 38.0 19.6   704 – Lincoln Laboratory ETS, New Mexico MPS 46999
2002 01 15.08946 04 12 21.81 +20 22 56.0 19.1   704 – Lincoln Laboratory ETS, New Mexico MPS 46999
2002 01 15.10464 04 12 21.34 +20 23 08.9 19.6   704 – Lincoln Laboratory ETS, New Mexico MPS 46999
2002 01 15.11982 04 12 20.88 +20 23 22.6 19.5   704 – Lincoln Laboratory ETS, New Mexico MPS 46999
2002 01 15.13806 04 12 20.33 +20 23 38.4 19.1   704 – Lincoln Laboratory ETS, New Mexico MPS 46999
2002 01 15.15325 04 12 19.86 +20 23 51.5 19.1   704 – Lincoln Laboratory ETS, New Mexico MPS 46999
2002 01 21.08736 04 10 14.30 +21 48 22.3 19.0   704 – Lincoln Laboratory ETS, New Mexico MPS 46999
2002 01 21.10215 04 10 14.02 +21 48 35.3 19.0   704 – Lincoln Laboratory ETS, New Mexico MPS 46999
2002 01 21.11807 04 10 13.86 +21 48 48.2 19.5   704 – Lincoln Laboratory ETS, New Mexico MPS 46999
2002 01 21.13342 04 10 13.57 +21 49 01.2 19.5   704 – Lincoln Laboratory ETS, New Mexico MPS 46999
2003 05 22.37425 16 15 32.35 +00 04 12.8 19.9 V 691 – Steward Observatory, Kitt Peak-Spacewatch MPS 80012
2003 05 22.40442 16 15 30.22 +00 04 02.0 19.9 V 691 – Steward Observatory, Kitt Peak-Spacewatch MPS 80012
2003 05 22.43398 16 15 28.13 +00 03 51.7 19.9 V 691 – Steward Observatory, Kitt Peak-Spacewatch MPS 80012
2003 05 27.34914 16 09 46.03 -00 28 25.9 20.1 V 691 – Steward Observatory, Kitt Peak-Spacewatch MPS 80012
2003 05 27.37570 16 09 44.15 -00 28 36.9 20.1 V 691 – Steward Observatory, Kitt Peak-Spacewatch MPS 80012
2003 05 27.40505 16 09 42.09 -00 28 49.4 19.9 V 691 – Steward Observatory, Kitt Peak-Spacewatch MPS 80012
2003 06 01.33385 16 04 04.77 -01 05 26.0 20.5 V 691 – Steward Observatory, Kitt Peak-Spacewatch MPS 80012
2003 06 01.36317 16 04 02.74 -01 05 39.7 20.4 V 691 – Steward Observatory, Kitt Peak-Spacewatch MPS 80012
2003 06 01.38926 16 04 00.93 -01 05 51.8 20.5 V 691 – Steward Observatory, Kitt Peak-Spacewatch MPS 80012
2003 07 05.26241 15 36 29.04 -06 33 43.7 21.6 V 691 – Steward Observatory, Kitt Peak-Spacewatch MPS 82125
2003 07 05.27181 15 36 28.81 -06 33 49.7 21.3 V 691 – Steward Observatory, Kitt Peak-Spacewatch MPS 82125
2003 07 05.28279 15 36 28.37 -06 33 56.6 22.0 V 691 – Steward Observatory, Kitt Peak-Spacewatch MPS 82125
2005 10 21.48773 03 51 33.18 -14 15 23.9 19.8 R 644 – Palomar Mountain/NEAT MPS 145975
2005 10 21.49871 03 51 32.63 -14 15 25.4 19.8 R 644 – Palomar Mountain/NEAT MPS 145975
2005 10 21.51015 03 51 32.04 -14 15 26.7 19.7 R 644 – Palomar Mountain/NEAT MPS 145975
2005 10 31.30300 03 42 15.66 -14 22 29.6 19.1 V 703 – Catalina Sky Survey MPS 147383
2005 10 31.30773 03 42 15.37 -14 22 28.9 19.5 V 703 – Catalina Sky Survey MPS 147383
2005 10 31.31249 03 42 15.12 -14 22 29.4 19.2 V 703 – Catalina Sky Survey MPS 147383
2005 10 31.31725 03 42 14.79 -14 22 30.0 18.9 V 703 – Catalina Sky Survey MPS 147383
2005 12 01.24420 03 05 47.29 -11 18 39.8 19.8 V 703 – Catalina Sky Survey MPS 151956
2005 12 01.25428 03 05 46.71 -11 18 33.8 19.6 V 703 – Catalina Sky Survey MPS 151956
2005 12 01.26439 03 05 45.96 -11 18 27.3 19.9 V 703 – Catalina Sky Survey MPS 151956
2005 12 01.27448 03 05 45.27 -11 18 19.9 20.0 V 703 – Catalina Sky Survey MPS 151956
2005 12 06.21633 03 00 39.34 -10 18 51.9 19.6 V 703 – Catalina Sky Survey MPS 153569
2005 12 06.22234 03 00 38.91 -10 18 49.2 19.4 V 703 – Catalina Sky Survey MPS 153569
2005 12 06.22835 03 00 38.62 -10 18 41.1 19.5 V 703 – Catalina Sky Survey MPS 153569
2005 12 06.23434 03 00 38.23 -10 18 38.4 19.2 V 703 – Catalina Sky Survey MPS 153569
2005 12 30.14211 02 45 28.66 -04 15 21.7 20.2 R 644 – Palomar Mountain/NEAT MPS 158858
2005 12 30.16326 02 45 28.25 -04 15 00.0 20.4 R 644 – Palomar Mountain/NEAT MPS 158858
2005 12 30.18445 02 45 27.90 -04 14 38.9 20.3 R 644 – Palomar Mountain/NEAT MPS 158858
2007 04 11.37395 15 30 44.38 +20 45 00.1 19.2 V 703 – Catalina Sky Survey MPS 206133
2007 04 11.38323 15 30 43.81 +20 45 01.1 19.1 V 703 – Catalina Sky Survey MPS 206133
2007 04 11.39249 15 30 43.30 +20 45 02.7 18.7 V 703 – Catalina Sky Survey MPS 206133
2007 04 11.40175 15 30 42.94 +20 45 04.4 19.0 V 703 – Catalina Sky Survey MPS 206133
2007 04 14.29343 15 28 04.47 +20 51 00.2 19.3 R 699 – Lowell Observatory-LONEOS MPS 206825
2007 04 14.31634 15 28 03.15 +20 51 03.6   699 – Lowell Observatory-LONEOS MPS 206825
2007 04 14.33927 15 28 01.79 +20 51 06.0   699 – Lowell Observatory-LONEOS MPS 206825
2007 04 14.36220 15 28 00.38 +20 51 08.3   699 – Lowell Observatory-LONEOS MPS 206825
2007 05 22.30559 14 45 40.14 +17 50 55.0 20.0 V 703 – Catalina Sky Survey MPS 210111
2007 05 22.31373 14 45 39.67 +17 50 49.3 19.4 V 703 – Catalina Sky Survey MPS 210111
2007 05 22.32186 14 45 39.16 +17 50 43.8 19.2 V 703 – Catalina Sky Survey MPS 210111
2007 05 22.33000 14 45 38.66 +17 50 37.6 19.2 V 703 – Catalina Sky Survey MPS 210111
2009 10 20.61590 02 16 19.48 -30 07 13.7 19.7 V E12 – Siding Spring Survey MPS 300416
2009 10 20.62604 02 16 18.84 -30 07 15.4 20.5 V E12 – Siding Spring Survey MPS 300416
2009 10 20.63617 02 16 18.15 -30 07 15.6 19.9 V E12 – Siding Spring Survey MPS 300416
2009 10 20.64634 02 16 17.47 -30 07 15.8 20.3 V E12 – Siding Spring Survey MPS 300416
2010 12 19.76842 12 45 13.93 +27 54 55.0   C51 – WISE MPS 362936
2010 12 19.83451 12 45 21.68 +27 55 13.1   C51 – WISE MPS 362936
2010 12 19.96681 12 45 37.04 +27 55 50.4   C51 – WISE MPS 362936
2010 12 20.03290 12 45 44.77 +27 56 09.0   C51 – WISE MPS 362936
2010 12 20.09899 12 45 52.35 +27 56 27.0   C51 – WISE MPS 362936
2011 02 10.12058 13 57 40.63 +35 56 00.6 20.2   A14 – Les Engarouines Observatory MPS 371134
2011 02 10.12814 13 57 41.02 +35 56 06.9 19.9   A14 – Les Engarouines Observatory MPS 371134
2011 02 10.13562 13 57 41.28 +35 56 14.1 19.6   A14 – Les Engarouines Observatory MPS 371134
2011 02 23.39716 14 02 06.15 +38 45 44.2 19.4   704 – Lincoln Laboratory ETS, New Mexico MPS 371833
